Key West, FL

6:07 PM EDT on April 26, 2017 (GMT -0400)
Key West International

Weather History for KEYW - December, 2011

Change the Weather History Date:

Sunday, December 4, 2011

  Actual Average Record
Temperature  
Mean Temperature 75 °F 73 °F  
Max Temperature 80 °F 78 °F 86 °F (1880)
Min Temperature 69 °F 69 °F 46 °F (1876)
Degree Days  
Heating Degree Days 0 0  
Month to date heating degree days 0 0  
Since 1 July heating degree days 0 1  
Cooling Degree Days 10 8  
Month to date cooling degree days 28 34  
Year to date cooling degree days 4890 4567  
Growing Degree Days 24 (Base 50)    
Moisture  
Dew Point 66 °F    
Average Humidity 74    
Maximum Humidity 90    
Minimum Humidity 58    
Precipitation  
Precipitation T in 0.09 in 2.99 in (1997)
Month to date precipitation T 0.33  
Year to date precipitation 42.27 37.94  
Snow  
Snow 0.00 in - - ()
Month to date snowfall 0.0  
Since 1 July snowfall 0.0  
Snow Depth 0.00 in    
Sea Level Pressure  
Sea Level Pressure 30.11 in    
Wind  
Wind Speed 11 mph (NE)    
Max Wind Speed 23 mph    
Max Gust Speed 32 mph    
Visibility 10 miles    
Events Rain    
T = Trace of Precipitation, MM = Missing Value Source: NWS Daily Summary

Daily Weather History Graph

Daily Weather History Graph

Search for Another Location

Airport or City:

Trip Planner

Search our weather history database for the weather conditions in past years. The results will help you decide how hot, cold, wet, or windy it might be!

Date:

Astronomy

Dec. 04, 2011 Rise Set
Actual Time 6:56 AM EST 5:38 PM EST
Civil Twilight 6:31 AM EST 6:02 PM EST
Nautical Twilight 6:03 AM EST 6:31 PM EST
Astronomical Twilight 5:35 AM EST 6:58 PM EST
Moon 1:43 PM EST (12/4) 1:47 AM EST (12/4)
Length of Visible Light 11h 31m
Length of Day
10h 42m
Waxing Gibbous, 71% of the Moon is Illuminated
Dec 4
Waxing Gibbous
Dec 10
Full
Dec 17
Last Quarter
Dec 24
New
Jan 1
First Quarter

Hourly Weather History & Observations

Time (EST) Temp. Dew Point Humidity Pressure Visibility Wind Dir Wind Speed Gust Speed Precip Events Conditions
12:53 AM 70.0 °F 63.0 °F 78% 30.17 in 10.0 mi NE 9.2 mph - N/A   Clear
1:53 AM 69.8 °F 64.4 °F 83% 30.15 in 10.0 mi NE 8.1 mph - N/A   Scattered Clouds
2:53 AM 70.0 °F 64.0 °F 81% 30.13 in 10.0 mi NE 8.1 mph - N/A   Overcast
3:53 AM 70.0 °F 64.9 °F 84% 30.12 in 10.0 mi NE 9.2 mph - N/A   Partly Cloudy
4:53 AM 70.0 °F 64.9 °F 84% 30.13 in 10.0 mi NE 10.4 mph 18.4 mph N/A   Partly Cloudy
5:53 AM 69.1 °F 66.0 °F 90% 30.13 in 10.0 mi NE 9.2 mph - N/A   Mostly Cloudy
6:53 AM 70.0 °F 66.0 °F 87% 30.14 in 10.0 mi NE 9.2 mph - N/A   Scattered Clouds
7:53 AM 70.0 °F 66.0 °F 87% 30.16 in 10.0 mi NE 10.4 mph - N/A   Overcast
8:53 AM 71.1 °F 66.0 °F 84% 30.17 in 10.0 mi NE 12.7 mph 20.7 mph 0.00 in Rain Light Rain
9:53 AM 72.0 °F 66.0 °F 81% 30.17 in 10.0 mi ENE 6.9 mph 16.1 mph 0.00 in   Overcast
10:53 AM 75.9 °F 66.0 °F 71% 30.15 in 10.0 mi ENE 13.8 mph 21.9 mph N/A   Overcast
11:53 AM 78.1 °F 64.9 °F 64% 30.13 in 10.0 mi East 16.1 mph 28.8 mph N/A   Overcast
12:53 PM 79.0 °F 64.9 °F 62% 30.11 in 10.0 mi East 13.8 mph 27.6 mph N/A   Overcast
1:53 PM 79.0 °F 63.0 °F 58% 30.09 in 10.0 mi East 15.0 mph 23.0 mph N/A   Overcast
2:53 PM 79.0 °F 63.0 °F 58% 30.07 in 10.0 mi ENE 13.8 mph 19.6 mph N/A   Mostly Cloudy
3:53 PM 78.1 °F 64.9 °F 64% 30.06 in 10.0 mi ENE 12.7 mph 21.9 mph N/A   Mostly Cloudy
4:53 PM 75.9 °F 64.9 °F 69% 30.06 in 10.0 mi ENE 11.5 mph 18.4 mph N/A   Mostly Cloudy
5:53 PM 75.0 °F 64.9 °F 71% 30.07 in 10.0 mi ENE 12.7 mph 18.4 mph N/A   Overcast
6:25 PM 73.4 °F 66.2 °F 78% 30.08 in 10.0 mi NE 9.2 mph - N/A   Overcast
6:37 PM 73.4 °F 66.2 °F 78% 30.08 in 10.0 mi NE 6.9 mph 16.1 mph N/A   Overcast
6:53 PM 73.9 °F 66.9 °F 79% 30.08 in 10.0 mi NE 8.1 mph - N/A   Overcast
7:11 PM 73.4 °F 66.2 °F 78% 30.08 in 10.0 mi NE 8.1 mph - N/A   Overcast
7:39 PM 73.4 °F 66.2 °F 78% 30.09 in 10.0 mi NE 9.2 mph - N/A   Overcast
7:51 PM 73.4 °F 66.2 °F 78% 30.09 in 10.0 mi NE 6.9 mph 17.3 mph N/A   Overcast
7:53 PM 73.0 °F 66.9 °F 81% 30.09 in 10.0 mi NE 9.2 mph 17.3 mph N/A   Overcast
8:39 PM 73.4 °F 66.2 °F 78% 30.09 in 10.0 mi NE 9.2 mph 17.3 mph N/A   Mostly Cloudy
8:51 PM 73.4 °F 68.0 °F 83% 30.09 in 10.0 mi NE 10.4 mph - N/A   Overcast
8:53 PM 73.4 °F 68.0 °F 83% 30.09 in 10.0 mi ENE 8.1 mph - N/A   Overcast
9:24 PM 73.4 °F 68.0 °F 83% 30.09 in 10.0 mi ENE 9.2 mph 16.1 mph N/A   Mostly Cloudy
9:32 PM 73.4 °F 68.0 °F 83% 30.09 in 10.0 mi NE 9.2 mph - N/A   Overcast
9:39 PM 73.4 °F 68.0 °F 83% 30.09 in 10.0 mi NE 9.2 mph - N/A   Mostly Cloudy
9:53 PM 73.0 °F 68.0 °F 84% 30.09 in 10.0 mi NE 9.2 mph - N/A   Scattered Clouds
10:53 PM 73.0 °F 68.0 °F 84% 30.09 in 10.0 mi ENE 10.4 mph - N/A   Partly Cloudy
11:53 PM 72.0 °F 69.1 °F 91% 30.08 in 10.0 mi NE 8.1 mph - N/A   Mostly Cloudy